Showing default

EDRS-C, 44475

Orbit data source: Space-Track

EDRS-C, 44475 is a payload satellite owned by ESA (ESA) in GEO that was launched on Tue, 06 Aug 2019 UTC via an ARIANE 5ECA+ launch vehicle from the French Guiana (FRGUI). Payload-class satellites include a variety of spacecraft equipped with specific instruments for various scientific and technological missions. These include communications satellites like Starlink; space stations such as the ISS; scientific satellites like the Hubble; Earth observation satellites from companies like Planet Labs, Umbra, and HawkEye 360; GPS; miniature CubeSats for education and research; and military/defense satellites.

Not visible in the next 10 days
Identifier
44475, 2019-049A
Orbit
GEO
Country
Flag of ESAESA
Related business
Manufacturer
OHB
Mission
Operational Civil Communications
Bus & Motor
SMALLGEO, S400
Mass
3,186 kg wet, ~1,700 kg dry
Launch date (UTC)
2019-08-06 (6 years ago)
Launch vehicle
ARIANE 5ECA+
Launch site
French Guiana (FRGUI)
Object type
Payload
Rocket body
Debris
Shape & HBR
Box + 2 Pan, 10.4 m
Radar Cross Section
22.899 m², Small (<0.1 m²)

Expand to show TLE details & history
Last TLE update: 6 hours ago

TLE from 6 hours ago
0 EDRS-C
1 44475U 19049A   25308.27871111 -.00000249  00000-0  00000-0 0  9999
2 44475   0.0555  92.1725 0000912 148.9019  45.5556  1.00269001 22958
Epoch: 2025-11-04T06:41Z
TLE epoch observation values (Epoch: 2025-11-04T06:41:20.639Z)
Latitude
0.01606°
Longitude
142.49378°
Altitude
35,784.169 km
Speed
3.075 km/s
True Right ascension
19h 06m 23s
True Declination
0° 00' 58"
Sunlit
Object was in daylight at epoch
Visualization orbit readout
Latitude
Unknown
Longitude
Unknown
Altitude
Unknown
Speed
Unknown
Apparent Right ascension
Unknown
Apparent Declination
Unknown
Sunlit
N/A
Visualization observer readout
Local Sidereal Time
08:25:01
Azimuth
Unknown
Elevation
Unknown
Doppler factor
Unknown
Orbital elements
Apogee altitude
35,792.291 km
Perigee altitude
35,784.6 km
Semi-major axis
42,166.583 km
Eccentricity
0.00009
Inclination
0.0555°
RAAN
92.1725°
Arg. of periapsis
148.9019°
True anomaly
45.56306°
Mean anomaly
45.5556°
Eccentric anomaly
45.55933°
Mean motion
0.25066 °/min
Orbital period
1,436.19 mins
BSTAR
0
Loading maneuver chart data...
Computing Atmospheric mass density...
Loading historical data...
Loading historical data...
Loading historical data...
Loading historical data...
Loading historical data...
Loading historical data...
Loading historical data...
Other satellites on launch #49 in the year 2019 (2019-08-06 UTC)

Documentation

Showing up to 5 results
|